Weather History for KMFI - July, 2012

Change the Weather History Date:

Saturday, July 7, 2012

  Actual Average Record
Temperature  
Mean Temperature 74 °F -  
Max Temperature 84 °F 81 °F 100 °F (1936)
Min Temperature 66 °F 57 °F 42 °F (1997)
Cooling Degree Days 9    
Growing Degree Days 24 (Base 50)    
Moisture  
Dew Point 62 °F    
Average Humidity 71    
Maximum Humidity 94    
Minimum Humidity 42    
Precipitation  
Precipitation 0.00 in - - ()
Sea Level Pressure  
Sea Level Pressure 30.04 in    
Wind  
Wind Speed 8 mph (NNE)    
Max Wind Speed 14 mph    
Max Gust Speed 20 mph    
Visibility 10 miles    
Events Rain    
Averages and records for this station are not official NWS values.
T = Trace of Precipitation, MM = Missing Value Source: NWS Daily Summary

Daily Weather History Graph

Daily Weather History Graph

Search for Another Location

Airport or City:

Trip Planner

Search our weather history database for the weather conditions in past years. The results will help you decide how hot, cold, wet, or windy it might be!

Date:

Astronomy

Jul. 07, 2012 Rise Set
Actual Time 5:23 AM CDT 8:47 PM CDT
Civil Twilight 4:47 AM CDT 9:23 PM CDT
Nautical Twilight 3:59 AM CDT 10:11 PM CDT
Astronomical Twilight 2:59 AM CDT 11:11 PM CDT
Moon 10:52 PM CDT (7/7) 10:01 AM CDT (7/7)
Length of Visible Light 16h 36m
Length of Day
15h 24m
Waning Gibbous, 81% of the Moon is Illuminated
Jul 7
Waning Gibbous
Jul 10
Last Quarter
Jul 18
New
Jul 26
First Quarter
Aug 1
Full

Hourly Weather History & Observations

Time (CDT) Temp. Heat Index Dew Point Humidity Pressure Visibility Wind Dir Wind Speed Gust Speed Precip Events Conditions
12:54 AM 73.9 °F - 68.0 °F 82% 29.94 in 10.0 mi NNE 6.9 mph - N/A   Clear
1:54 AM 72.0 °F - 66.9 °F 84% 29.93 in 10.0 mi ENE 6.9 mph - N/A   Clear
2:54 AM 71.1 °F - 66.0 °F 84% 29.93 in 10.0 mi North 5.8 mph - N/A   Clear
3:27 AM 71.6 °F - 66.2 °F 83% 29.97 in 10.0 mi North 8.1 mph - N/A   Mostly Cloudy
3:54 AM 70.0 °F - 64.9 °F 84% 29.96 in 10.0 mi North 6.9 mph - N/A   Overcast
4:18 AM 69.8 °F - 64.4 °F 83% 29.99 in 10.0 mi North 6.9 mph - N/A   Overcast
4:47 AM 69.8 °F - 64.4 °F 83% 29.99 in 10.0 mi NNE 8.1 mph - N/A   Partly Cloudy
4:54 AM 70.0 °F - 64.9 °F 84% 29.97 in 10.0 mi NNE 8.1 mph - N/A   Partly Cloudy
5:47 AM 69.8 °F - 64.4 °F 83% 30.01 in 10.0 mi NNE 6.9 mph - N/A   Scattered Clouds
5:54 AM 68.0 °F - 64.9 °F 90% 29.99 in 10.0 mi NNE 8.1 mph - N/A   Mostly Cloudy
6:54 AM 66.9 °F - 64.0 °F 90% 30.01 in 10.0 mi NNE 9.2 mph - N/A   Overcast
7:21 AM 68.0 °F - 62.6 °F 83% 30.04 in 10.0 mi NE 12.7 mph - N/A   Overcast
7:54 AM 66.0 °F - 62.1 °F 87% 30.04 in 6.0 mi NNE 11.5 mph 17.3 mph 0.00 in Rain Light Rain
8:54 AM 66.0 °F - 62.1 °F 87% 30.06 in 10.0 mi NE 10.4 mph - 0.00 in   Overcast
9:43 AM 66.2 °F - 64.4 °F 94% 30.09 in 5.0 mi NE 5.8 mph - N/A   Overcast
9:54 AM 66.9 °F - 63.0 °F 87% 30.07 in 9.0 mi ENE 8.1 mph - N/A   Overcast
10:10 AM 69.8 °F - 62.6 °F 78% 30.09 in 10.0 mi NE 9.2 mph - N/A   Overcast
10:54 AM 70.0 °F - 62.1 °F 76% 30.09 in 10.0 mi ENE 6.9 mph - N/A   Overcast
11:54 AM 73.9 °F - 62.1 °F 66% 30.09 in 10.0 mi NE 10.4 mph - N/A   Overcast
12:19 PM 75.2 °F - 62.6 °F 65% 30.10 in 10.0 mi NNE 9.2 mph - N/A   Scattered Clouds
12:54 PM 78.1 °F - 62.1 °F 58% 30.08 in 10.0 mi NE 13.8 mph 19.6 mph N/A   Partly Cloudy
1:54 PM 80.1 °F 81.1 °F 61.0 °F 52% 30.07 in 10.0 mi NE 8.1 mph - N/A   Clear
2:54 PM 81.0 °F 81.3 °F 59.0 °F 47% 30.08 in 10.0 mi ENE 6.9 mph - N/A   Clear
3:54 PM 82.9 °F 82.8 °F 59.0 °F 44% 30.07 in 10.0 mi NE 8.1 mph - N/A   Clear
4:54 PM 82.9 °F 82.6 °F 57.9 °F 42% 30.07 in 10.0 mi NE 11.5 mph - N/A   Clear
5:54 PM 82.0 °F 81.7 °F 57.0 °F 42% 30.06 in 10.0 mi NE 10.4 mph - N/A   Clear
6:54 PM 81.0 °F 81.1 °F 57.9 °F 45% 30.07 in 10.0 mi NNE 5.8 mph - N/A   Clear
7:54 PM 79.0 °F - 57.9 °F 48% 30.08 in 10.0 mi NNE 5.8 mph - N/A   Clear
8:54 PM 73.9 °F - 60.1 °F 62% 30.09 in 10.0 mi Calm Calm - N/A   Clear
9:54 PM 71.1 °F - 61.0 °F 70% 30.11 in 10.0 mi North 5.8 mph - N/A   Clear
10:54 PM 72.0 °F - 57.9 °F 61% 30.10 in 10.0 mi North 8.1 mph - N/A   Clear
11:54 PM 71.1 °F - 55.0 °F 57% 30.11 in 10.0 mi NNE 8.1 mph - N/A   Clear